Bremerton, WA

7:27 AM PDT on August 29, 2014 (GMT -0700)
Sunset Illahee | Change Station
CLOSE
Current Station
Personal Weather Station
Location: Bremerton, WA
Elevation: 325 ft
Nearby Weather Stations

Elev 325 ft 47.61 °N, 122.61 °W | Updated 9 minutes ago

Overcast
Overcast
58.3 °F
Feels Like 58.3 °F
N
4.2
Wind Variable Wind from ESE

Today
High -- | Low -- °F
--% Chance of Precip.
Yesterday
High -- | Low -- °F
Precip. -- in
6:25 AM 7:56 PM
Waxing Crescent, 14% visible
Pressure 30.02 in
Visibility 5.0 miles
Clouds Overcast 300 ft
Dew Point 58 °F
Humidity 99%
Rainfall 0.00 in
Snow Depth Not available.
UV 0 out of 12
Pollen 2.40 out of 12
Air Quality Not available.
Flu Activity Not available.
METAR KPWT 291415Z AUTO 18004KT 5SM OVC003 13/13 A3002 RMK AO1

More Conditions Fewer Conditions

Pressure 30.02 in
Visibility 5.0 miles
Clouds Overcast 300 ft
Dew Point 58 °F
Humidity 99%
Rainfall 0.00 in
Snow Depth Not available.
UV 0 out of 12
Pollen 2.40 out of 12
Air Quality Not available.
Flu Activity Not available.
METAR KPWT 291415Z AUTO 18004KT 5SM OVC003 13/13 A3002 RMK AO1

More Conditions Fewer Conditions

10-Day Weather Forecast

Almanac

Astronomy

Aug. 29, 2014 Rise Set
Actual Time 6:25 AM PDT 7:56 PM PDT
Civil Twilight 5:52 AM PDT 8:28 PM PDT
Nautical Twilight 5:13 AM PDT 9:07 PM PDT
Astronomical Twilight 4:31 AM PDT 9:49 PM PDT
Moon 10:39 AM PDT 9:36 PM PDT
Length of Visible Light 14h 35m
Length of Day
13h 31m
Tomorrow will be 3m 18s shorter.
Waxing Crescent, 14% of the Moon is Illuminated
Today
Waxing Crescent
Sep 2
First Quarter
Sep 8
Full
Sep 15
Last Quarter
Sep 24
New

Today's Extremes

State Highs State Lows

Community

WunderPhotos

Upload Photos

1,748,246 photos uploaded!

Nearby

Snow Depth

Station Depth Elevation
Mount Crag 0 in 4050 ft
Dungeness 0 in 4100 ft
Waterhole 0 in 5000 ft
Alpine Meadows 0 in 3500 ft
Mount Gardner 0 in 3000 ft

Earthquake Activity

City Distance Mag. Time & Date
No recent earthquake activity has been reported nearby.
Minimum magnitude displayed is 2.5.

Coastal Water Temperatures

Place Temperature
Port Townsend, WA 54.0 °F
Seattle, WA 55.9 °F
Friday Harbor, WA 53.1 °F
Tacoma, WA 55.0 °F

Nearby Weather Stations